Tracking 31027 objects as of 19-Jul-2025
HD Live streaming from Space Station
objects crossing your sky now

FREGAT DEB

Track FREGAT DEB now!
10-day predictions


NORAD ID: 40078
Int'l Code: 2014-037K
Perigee: 622.5 km
Apogee: 809.8 km
Inclination: 98.0 °
Period: 99.0 minutes
Semi major axis: 7087 km
RCS: Unknown
Launch date: July 8, 2014
Source: Commonwealth of Independent States (former USSR) (CIS)
Launch site: TYURATAM MISSILE AND SPACE COMPLEX (TTMTR)

Note: This is SATELLITE DEBRIS
Your satellite tracking list
STARLINK-4010
Track 1 satellite(s)




NASA's NSSDC Master Catalog

Two Line Element Set (TLE):
1 40078U 14037K   25199.47854842  .00000611  00000-0  13624-3 0  9999
2 40078  98.0286 184.3034 0132149  24.6983 336.0466 14.55100612584582
Source of the keplerian elements: AFSPC